Regional Weather Roundup
Issued by NWS

Home | Current Version | Previous Version | Graphics & Text | Print | Product List | Glossary On
Versions: 1 2 3 4 5 6 7 8 9 10 11 12 13 14 15 16 17 18 19 20 21 22 23 24 25 26 27
000
ASUS45 KBOU 091107
RWRCO

WEATHER ROUNDUP FOR COLORADO
NATIONAL WEATHER SERVICE DENVER/BOULDER CO
400 AM MST FRI DEC 09 2016

NOTE: "FAIR" INDICATES FEW OR NO CLOUDS BELOW 12000 FEET WITH NO
SIGNIFICANT WEATHER AND/OR OBSTRUCTIONS TO VISIBILITY.

COZ001>005-013-030-031-091200-
...NORTHWEST COLORADO...

CITY           SKY/WX    TMP DP  RH WIND       PRES   REMARKS
CRAIG          CLOUDY    25  18  74 NE5       30.17S WCI  19
HAYDEN         CLOUDY    19  14  79 E8        30.16S WCI   9
MEEKER         CLOUDY    34  18  52 SW7       30.19S WCI  28
MOUNT WERNER   NOT AVBL
STEAMBOAT SPGS CLOUDY    16  14  90 CALM      30.16F
WALDEN           N/A     25  21  86 CALM      30.11R
$$

COZ006>008-011-091200-
...WEST CENTRAL VALLEYS...

CITY           SKY/WX    TMP DP  RH WIND       PRES   REMARKS
GRAND JUNCTION CLOUDY    23  17  78 CALM      30.30R
MONTROSE       CLOUDY    27  18  69 CALM      30.29R
EAGLE          LGT SNOW  25  22  88 CALM      30.24S FOG
RIFLE          CLOUDY    24  15  68 CALM      30.29R
DELTA          NOT AVBL
NUCLA          MOCLDY    28  18  64 CALM      30.31S
$$

COZ017>023-064>068-091200-
...SOUTHWEST COLORADO...

CITY           SKY/WX    TMP DP  RH WIND       PRES   REMARKS
DURANGO        CLOUDY    25  14  63 NE5       30.30S WCI  19
CORTEZ         FAIR      25  22  88 E3        30.29S
PAGOSA SPRINGS CLOUDY    22  12  67 CALM      30.29S
TELLURIDE      CLOUDY    30  27  88 CALM      30.28R
WOLF CREEK PAS SNOW      14  14 100 SW14G22   30.28S VSB 1/4 WCI  -1
$$

COZ009-010-012-014-032>034-037-058>063-091200-
...CENTRAL COLORADO...

CITY           SKY/WX    TMP DP  RH WIND       PRES   REMARKS
ASPEN          NOT AVBL
BUENA VISTA    FAIR      32  19  59 NW13G22   30.14F WCI  23
COPPER MTN     LGT SNOW  23  18  80 MISG      30.14S VSB 3/4
BERTHOUD PASS  HVY SNOW  14   3  62 MISG      30.04F VSB 1/4
COTTONWOOD PAS CLOUDY    32  21  64 W15G35    30.12S WCI  22
GUNNISON       FLURRIES  16  14  92 CALM      30.29F
KREMMLING      LGT SNOW  28  23  80 W5        30.16S WCI  23
LEADVILLE      LGT SNOW  22  19  89 NW10      30.15S FOG     WCI  11
MONARCH PASS   CLOUDY    18  14  86 W31G40    30.29F WCI  -2
SALIDA         FAIR      36  20  53 W15G23    30.22F
SUNLIGHT       LGT SNOW  19  18  93 SW18G25   30.22S WCI   4
WILKERSON PASS FAIR      21  19  93 W10G23    30.13R WCI  10
$$

COZ069>075-091200-
...SAN LUIS VALLEY/SANGRE DE CRISTO MOUNTAINS...

CITY           SKY/WX    TMP DP  RH WIND       PRES   REMARKS
ALAMOSA        FAIR       1  -3  83 W6        30.24S WCI -10
LA VETA PASS   FAIR      18  12  79 NE30G48   30.09S WCI  -2
SAGUACHE       FAIR      14  10  85 NW6       30.23F WCI   5
$$

COZ035-036-038>040-091200-
...NORTHERN COLORADO FRONT RANGE...

CITY           SKY/WX    TMP DP  RH WIND       PRES   REMARKS
DENVER INTL AP FAIR       6   1  80 VRB7      30.08F WCI  -6
DMNS CITY PARK   N/A      8   4  84 N5        30.08F WCI  -1
AURORA         PTCLDY     4   2  88 S9        30.05F WCI -10
FRONT RANGE AP FAIR       9   3  78 S6        30.08F WCI  -1
ERIE MUNI ARPT FAIR       2  -1  86 CALM      30.11F
BOULDER MUN AP FAIR       7   5  92 CALM      30.09F
CENTENNIAL     FAIR       7   3  84 E5        30.05F WCI  -2
BROOMFIELD     FAIR       5   3  92 W3        30.07F
FORT COLLINS   FAIR       5   1  85 S6        30.11F WCI  -6
LONGMONT       FAIR       3  -1  81 CALM      30.12F
$$

COZ041-046-047-076>085-087-088-091200-
...PIKES PEAK/PALMER DIVIDE AND SOUTHERN FOOTHILLS...

CITY           SKY/WX    TMP DP  RH WIND       PRES   REMARKS
COLO. SPRINGS  FAIR       5   0  79 N7        30.10F WCI  -7
A. F. ACADEMY  FAIR       3  -1  81 NW5       30.07F WCI  -6
SCHRIEVER AFB  NOT AVBL
ELLICOTT       FAIR     N/A N/A N/A N6          N/A
FALCON         FAIR       9   6  87 NW6       30.07F WCI  -1
FORT CARSON    FAIR       7   1  77 W7        30.09F WCI  -5
LIMON          FAIR       1  -2  87 SE6       30.12F WCI -10
MONUMENT HILL  FAIR      16  10  79 S8        30.06S WCI   5
TRINIDAD       FAIR      16   8  71 SW15      30.11F WCI   1
$$

COZ042>045-048>051-090-091-091200-
...NORTHEAST COLORADO...

CITY           SKY/WX    TMP DP  RH WIND       PRES   REMARKS
GREELEY ARPT   FAIR       7   3  84 CALM      30.15F
AKRON          FAIR       8   0  69 S13       30.12F WCI  -8
BURLINGTON     FAIR       6  -1  73 S12       30.21F WCI  -9
WRAY           NOT AVBL
STERLING       MOCLDY    14   7  73 S12       30.16F WCI   0
HOLYOKE        FAIR      14   9  79 S13       30.24F WCI   0
FORT MORGAN    FAIR       9   2  76 S5        30.14F WCI   0
$$

COZ086-089-092>099-091200-
...SOUTHEAST COLORADO...

CITY           SKY/WX    TMP DP  RH WIND       PRES   REMARKS
PUEBLO         FAIR       8   1  73 CALM      30.18F
LA JUNTA       FAIR       7   2  80 W6        30.22F WCI  -3
LAMAR          FAIR       7   2  80 CALM      30.23F
SPRINGFIELD      N/A     21  16  81 S13       30.19F WCI   9
$$




USA.gov is the U.S. government's official web portal to all federal, state and local government web resources and services.